| time (UTC) | temp C | wind direction | speed KPH | gust KPH | rain 1hr cm | rain 24hr cm | rain mn cm | humidity % | barometer mb |
| 20260508013111 | 8 | 0.0 | 0.0 | 0.00 | 0.20 | 0.00 | 89 | 1010.0 | |
| 20260508012042 | 8 | 0.0 | 0.0 | 0.00 | 0.20 | 0.00 | 88 | 1010.0 | |
| 20260508011039 | 8 | 0.0 | 0.0 | 0.00 | 0.20 | 0.00 | 88 | 1010.0 | |
| 20260508010035 | 8 | 0.0 | 0.0 | 0.00 | 0.20 | 0.00 | 88 | 1010.0 | |
| 20260508005053 | 8 | 0.0 | 0.0 | 0.00 | 0.20 | 0.00 | 88 | 1010.0 | |
| 20260508004031 | 8 | 0.0 | 0.0 | 0.00 | 0.20 | 0.00 | 88 | 1009.9 | |
| 20260508001020 | 8 | 0.0 | 0.0 | 0.00 | 0.20 | 0.00 | 88 | 1010.1 | |
| 20260508000152 | 8 | 0.0 | 0.0 | 0.00 | 0.20 | 0.00 | 88 | 1010.2 | |
| 20260507235113 | 8 | 0.0 | 0.0 | 0.00 | 0.20 | 0.00 | 88 | 1010.1 | |
| 20260507234108 | 8 | 0.0 | 0.0 | 0.00 | 0.20 | 0.00 | 88 | 1010.1 | |
| 20260507233103 | 8 | 0.0 | 0.0 | 0.00 | 0.20 | 0.00 | 88 | 1010.2 | |
| 20260507231058 | 8 | 0.0 | 0.0 | 0.00 | 0.20 | 0.00 | 87 | 1010.2 | |
| 20260507225116 | 8 | 0.0 | 0.0 | 0.00 | 0.20 | 0.00 | 87 | 1010.2 | |
| 20260507194057 | 8 | 0.0 | 0.0 | 0.00 | 0.20 | 0.20 | 83 | 1009.1 | |
| 20260507193135 | 8 | 0.0 | 0.0 | 0.00 | 0.20 | 0.20 | 83 | 1009.2 | |
| 20260507192120 | 8 | 0.0 | 0.0 | 0.00 | 0.20 | 0.20 | 83 | 1009.2 | |
| 20260507191030 | 8 | 0.0 | 0.0 | 0.00 | 0.20 | 0.20 | 82 | 1008.9 | |
| 20260507190046 | 9 | 0.0 | 0.0 | 0.00 | 0.20 | 0.20 | 82 | 1008.9 | |
| 20260507185025 | 9 | 0.0 | 0.0 | 0.00 | 0.20 | 0.20 | 82 | 1008.7 | |
| 20260507184017 | 9 | 0.0 | 0.0 | 0.00 | 0.20 | 0.20 | 82 | 1008.7 | |
| 20260507183115 | 9 | 0.0 | 0.0 | 0.00 | 0.20 | 0.20 | 82 | 1008.8 | |
| 20260507182121 | 9 | 0.0 | 0.0 | 0.00 | 0.20 | 0.20 | 81 | 1008.5 | |
| 20260507181108 | 9 | 0.0 | 0.0 | 0.00 | 0.20 | 0.20 | 81 | 1008.3 | |
| 20260507180117 | 9 | 0.0 | 0.0 | 0.00 | 0.20 | 0.20 | 81 | 1008.3 | |
| 20260507175101 | 9 | 0.0 | 0.0 | 0.00 | 0.20 | 0.20 | 81 | 1008.1 | |
| 20260507174056 | 9 | 0.0 | 0.0 | 0.00 | 0.20 | 0.20 | 81 | 1008.0 | |
| 20260507173110 | 10 | 0.0 | 0.0 | 0.00 | 0.20 | 0.20 | 81 | 1007.9 | |
| 20260507172108 | 10 | 0.0 | 0.0 | 0.00 | 0.20 | 0.20 | 81 | 1007.7 | |
| 20260507171205 | 10 | 0.0 | 0.0 | 0.00 | 0.20 | 0.20 | 81 | 1007.5 | |
| 20260507170041 | 10 | 0.0 | 0.0 | 0.00 | 0.20 | 0.20 | 80 | 1007.5 | |
| 20260507165039 | 10 | 0.0 | 0.0 | 0.00 | 0.20 | 0.20 | 80 | 1007.4 | |
| 20260507164036 | 10 | 0.0 | 0.0 | 0.00 | 0.20 | 0.20 | 80 | 1007.3 | |
| 20260507163030 | 10 | 0.0 | 0.0 | 0.00 | 0.20 | 0.20 | 80 | 1007.4 | |
| 20260507162028 | 10 | 0.0 | 0.0 | 0.00 | 0.20 | 0.20 | 81 | 1007.2 | |
| 20260507161024 | 10 | 0.0 | 0.0 | 0.00 | 0.20 | 0.20 | 81 | 1007.3 | |
| 20260507160021 | 10 | 0.0 | 0.0 | 0.00 | 0.20 | 0.20 | 81 | 1007.3 | |
| 20260507155036 | 10 | 0.0 | 0.0 | 0.00 | 0.20 | 0.20 | 82 | 1007.5 | |
| 20260507154114 | 10 | 0.0 | 0.0 | 0.00 | 0.20 | 0.20 | 82 | 1007.5 | |
| 20260507153109 | 10 | 0.0 | 0.0 | 0.00 | 0.20 | 0.20 | 82 | 1007.4 | |
| 20260507152106 | 10 | 0.0 | 0.0 | 0.00 | 0.20 | 0.20 | 83 | 1007.3 | |
| 20260507151102 | 10 | 0.0 | 0.0 | 0.00 | 0.20 | 0.20 | 83 | 1007.3 | |
| 20260507150058 | 10 | 0.0 | 0.0 | 0.00 | 0.20 | 0.20 | 83 | 1007.2 | |
| 20260507145055 | 10 | 0.0 | 0.0 | 0.00 | 0.20 | 0.20 | 83 | 1007.2 | |
| 20260507144050 | 10 | 0.0 | 0.0 | 0.00 | 0.20 | 0.20 | 83 | 1007.1 | |
| 20260507143046 | 10 | 0.0 | 0.0 | 0.00 | 0.20 | 0.20 | 84 | 1007.3 | |
| 20260507142043 | 10 | 0.0 | 0.0 | 0.00 | 0.20 | 0.20 | 84 | 1007.4 | |
| 20260507141041 | 10 | 0.0 | 0.0 | 0.00 | 0.20 | 0.20 | 84 | 1007.2 | |
| 20260507140037 | 9 | 0.0 | 0.0 | 0.03 | 0.20 | 0.20 | 85 | 1007.1 | |
| 20260507135032 | 10 | 0.0 | 0.0 | 0.03 | 0.20 | 0.20 | 85 | 1007.2 | |
| 20260507134051 | 9 | 0.0 | 0.0 | 0.03 | 0.20 | 0.20 | 85 | 1007.1 | |
| 20260507133023 | 10 | 0.0 | 0.0 | 0.03 | 0.20 | 0.20 | 86 | 1007.0 | |
| 20260507132019 | 10 | 0.0 | 0.0 | 0.03 | 0.20 | 0.20 | 86 | 1006.9 | |
| 20260507131018 | 10 | 0.0 | 0.0 | 0.03 | 0.20 | 0.20 | 86 | 1006.9 | |
| 20260507130113 | 10 | 0.0 | 0.0 | 0.00 | 0.18 | 0.18 | 86 | 1006.7 | |
| 20260507125130 | 10 | 0.0 | 0.0 | 0.00 | 0.18 | 0.18 | 86 | 1006.8 | |
| 20260507124107 | 10 | 0.0 | 0.0 | 0.00 | 0.18 | 0.18 | 85 | 1006.6 | |
| 20260507123102 | 10 | 0.0 | 0.0 | 0.00 | 0.18 | 0.18 | 85 | 1006.6 | |
| 20260507122101 | 10 | 0.0 | 0.0 | 0.00 | 0.18 | 0.18 | 85 | 1006.5 | |
| 20260507121056 | 10 | 0.0 | 0.0 | 0.00 | 0.18 | 0.18 | 83 | 1006.4 | |
| 20260507120052 | 10 | 0.0 | 0.0 | 0.00 | 0.18 | 0.18 | 82 | 1006.5 | |
| 20260507115051 | 10 | 0.0 | 0.0 | 0.00 | 0.18 | 0.18 | 82 | 1006.5 | |
| 20260507114045 | 10 | 0.0 | 0.0 | 0.00 | 0.18 | 0.18 | 81 | 1006.4 | |
| 20260507113041 | 10 | 0.0 | 0.0 | 0.00 | 0.18 | 0.18 | 82 | 1006.3 | |
| 20260507112037 | 10 | 0.0 | 0.0 | 0.00 | 0.18 | 0.18 | 82 | 1006.2 | |
| 20260507111054 | 10 | 0.0 | 0.0 | 0.00 | 0.18 | 0.18 | 83 | 1006.1 | |
| 20260507110030 | 10 | 0.0 | 0.0 | 0.00 | 0.18 | 0.18 | 83 | 1006.0 | |
| 20260507105027 | 10 | 0.0 | 0.0 | 0.00 | 0.18 | 0.18 | 84 | 1005.9 | |
| 20260507104106 | 10 | 0.0 | 0.0 | 0.00 | 0.18 | 0.18 | 85 | 1005.9 | |
| 20260507103021 | 10 | 0.0 | 0.0 | 0.00 | 0.18 | 0.18 | 87 | 1005.8 | |
| 20260507102016 | 10 | 0.0 | 0.0 | 0.00 | 0.18 | 0.18 | 88 | 1005.7 | |
| 20260507101113 | 10 | 0.0 | 0.0 | 0.03 | 0.18 | 0.18 | 89 | 1005.6 | |
| 20260507100110 | 10 | 0.0 | 0.0 | 0.03 | 0.18 | 0.18 | 88 | 1005.6 | |
| 20260507095107 | 9 | 0.0 | 0.0 | 0.03 | 0.18 | 0.18 | 88 | 1005.6 | |
| 20260507094103 | 9 | 0.0 | 0.0 | 0.03 | 0.18 | 0.18 | 88 | 1005.5 | |
| 20260507093102 | 9 | 0.0 | 0.0 | 0.03 | 0.18 | 0.18 | 87 | 1005.5 | |
| 20260507092055 | 9 | 0.0 | 0.0 | 0.03 | 0.18 | 0.18 | 87 | 1005.3 | |
| 20260507091114 | 9 | 0.0 | 0.0 | 0.00 | 0.15 | 0.15 | 87 | 1005.2 | |
| 20260507090051 | 9 | 0.0 | 0.0 | 0.03 | 0.15 | 0.15 | 87 | 1005.1 | |
| 20260507085042 | 9 | 0.0 | 0.0 | 0.03 | 0.15 | 0.15 | 87 | 1004.8 | |
| 20260507084041 | 8 | 0.0 | 0.0 | 0.05 | 0.15 | 0.15 | 87 | 1004.8 | |
| 20260507083037 | 9 | 0.0 | 0.0 | 0.10 | 0.15 | 0.15 | 87 | 1004.7 | |
| 20260507082034 | 8 | 0.0 | 0.0 | 0.10 | 0.15 | 0.15 | 86 | 1004.5 | |
| 20260507081029 | 8 | 0.0 | 0.0 | 0.10 | 0.15 | 0.15 | 86 | 1004.4 | |
| 20260507080025 | 8 | 0.0 | 0.0 | 0.05 | 0.13 | 0.13 | 85 | 1004.2 | |
| 20260507075024 | 8 | 0.0 | 0.0 | 0.05 | 0.13 | 0.13 | 85 | 1004.2 | |
| 20260507074018 | 8 | 0.0 | 0.0 | 0.03 | 0.10 | 0.10 | 85 | 1003.9 | |
| 20260507073114 | 8 | 0.0 | 0.0 | 0.00 | 0.05 | 0.05 | 86 | 1003.9 | |
| 20260507072113 | 8 | 0.0 | 0.0 | 0.00 | 0.05 | 0.05 | 87 | 1003.8 | |
| 20260507071107 | 8 | 0.0 | 0.0 | 0.00 | 0.05 | 0.05 | 87 | 1003.7 | |
| 20260507070145 | 8 | 0.0 | 0.0 | 0.00 | 0.05 | 0.05 | 88 | 1003.6 | |
| 20260507065101 | 8 | 0.0 | 0.0 | 0.00 | 0.05 | 0.05 | 88 | 1003.7 | |
| 20260507064116 | 8 | 0.0 | 0.0 | 0.00 | 0.05 | 0.05 | 87 | 1003.7 | |
| 20260507063114 | 8 | 0.0 | 0.0 | 0.00 | 0.05 | 0.05 | 87 | 1003.6 | |
| 20260507062110 | 8 | 0.0 | 0.0 | 0.00 | 0.05 | 0.05 | 87 | 1003.5 | |
| 20260507061048 | 8 | 0.0 | 0.0 | 0.03 | 0.05 | 0.05 | 87 | 1003.3 | |
| 20260507060043 | 8 | 0.0 | 0.0 | 0.05 | 0.05 | 0.05 | 87 | 1003.2 | |
| 20260507055039 | 8 | 0.0 | 0.0 | 0.05 | 0.05 | 0.05 | 87 | 1003.1 | |
| 20260507054056 | 8 | 0.0 | 0.0 | 0.05 | 0.05 | 0.05 | 87 | 1003.1 | |
| 20260507053033 | 8 | 0.0 | 0.0 | 0.05 | 0.05 | 0.05 | 86 | 1003.0 | |
| 20260507052049 | 8 | 0.0 | 0.0 | 0.05 | 0.05 | 0.05 | 85 | 1002.9 | |
| 20260507051047 | 8 | 0.0 | 0.0 | 0.03 | 0.03 | 0.03 | 85 | 1002.9 | |
| 20260507050023 | 8 | 0.0 | 0.0 | 0.00 | 0.00 | 0.00 | 85 | 1002.9 | |
| 20260507045019 | 8 | 0.0 | 0.0 | 0.00 | 0.00 | 0.00 | 84 | 1002.6 | |
| 20260507044114 | 8 | 0.0 | 0.0 | 0.00 | 0.00 | 0.00 | 84 | 1002.6 | |
| 20260507043111 | 8 | 0.0 | 0.0 | 0.00 | 0.00 | 0.00 | 84 | 1002.6 | |
| 20260507042108 | 8 | 0.0 | 0.0 | 0.00 | 0.00 | 0.00 | 83 | 1002.7 | |
| 20260507041103 | 8 | 0.0 | 0.0 | 0.00 | 0.00 | 0.00 | 82 | 1002.6 | |
| 20260507040100 | 8 | 0.0 | 0.0 | 0.00 | 0.00 | 0.00 | 82 | 1002.6 | |
| 20260507035058 | 8 | 0.0 | 0.0 | 0.00 | 0.00 | 0.00 | 82 | 1002.4 | |
| 20260507034053 | 9 | 0.0 | 0.0 | 0.00 | 0.00 | 0.00 | 82 | 1002.5 | |
| 20260507033048 | 9 | 0.0 | 0.0 | 0.00 | 0.00 | 0.00 | 82 | 1002.4 | |
| 20260507032047 | 9 | 0.0 | 0.0 | 0.00 | 0.00 | 0.00 | 82 | 1002.2 | |
| 20260507031042 | 9 | 0.0 | 0.0 | 0.00 | 0.00 | 0.00 | 82 | 1002.0 | |
| 20260507030039 | 9 | 0.0 | 0.0 | 0.00 | 0.00 | 0.00 | 82 | 1001.8 | |
| 20260507025054 | 9 | 0.0 | 0.0 | 0.00 | 0.00 | 0.00 | 82 | 1001.9 | |
| 20260507024031 | 9 | 0.0 | 0.0 | 0.00 | 0.00 | 0.00 | 82 | 1001.8 | |
| 20260507023027 | 9 | 0.0 | 0.0 | 0.00 | 0.00 | 0.00 | 81 | 1001.7 | |
| 20260507022024 | 10 | 0.0 | 0.0 | 0.00 | 0.00 | 0.00 | 81 | 1001.7 | |
| 20260507021022 | 10 | 0.0 | 0.0 | 0.00 | 0.00 | 0.00 | 81 | 1001.6 | |
| 20260507020016 | 10 | 0.0 | 0.0 | 0.00 | 0.00 | 0.00 | 80 | 1001.5 | |
| 20260507015113 | 10 | 0.0 | 0.0 | 0.00 | 0.00 | 0.00 | 80 | 1001.5 | |
| 20260507014109 | 10 | 0.0 | 0.0 | 0.00 | 0.00 | 0.00 | 80 | 1001.4 |